Wind_Speed
30 30 31 31 30 27 25 23 22 20 19 17 17 20 23 27 30 30 28 26 25 23 22 22 21 20 19 19 17 17 18 17 18 20 22 24 25 25 26 26 26 26 27 27
29 29 28 30 30 29 26 24 22 21 19 18 20 23 23 25 28 28 28 27 26 25 24 23 23 23 22 21 19 20 20 21 22 24 26 28 30 30 31 31 31 31 31 31
26 27 28 29 29 29 28 25 23 22 21 21 23 24 24 25 27 28 28 27 26 26 26 26 26 25 24 24 23 23 23 24 26 28 30 32 33 35 35 35 34 34 35 35
24 26 28 28 29 30 29 28 26 24 23 23 24 24 25 26 27 28 28 27 26 27 28 28 28 28 29 28 29 29 29 30 31 33 35 36 37 37 37 38 38 37 38 38
23 24 25 27 28 29 29 29 28 27 27 26 25 25 25 26 28 29 29 29 29 29 29 29 30 31 32 32 33 33 34 34 35 37 38 39 39 40 40 39 40 40 40 38
23 24 24 25 26 27 29 29 29 29 29 29 26 25 25 27 29 31 32 31 31 31 31 32 33 34 35 36 36 37 38 38 39 40 40 41 40 41 40 40 40 41 40 40
23 23 24 24 24 26 27 28 29 30 30 29 27 27 27 28 30 33 34 34 34 34 34 34 35 37 38 38 39 40 40 41 41 41 42 41 41 41 41 41 41 42 41 41
20 20 21 21 22 23 25 26 27 28 30 29 29 30 29 27 30 33 36 37 37 36 36 37 38 39 40 41 42 43 43 43 43 42 43 43 42 41 41 42 42 41 41 42
18 17 18 18 18 20 21 23 24 26 27 27 30 31 30 29 29 31 34 37 38 38 38 39 40 41 43 44 44 45 45 44 44 43 43 43 42 42 42 43 43 43 45 44
16 16 15 15 17 18 19 21 22 24 24 27 29 30 30 28 27 29 30 33 36 37 39 41 42 43 44 45 46 46 46 44 43 43 43 42 43 43 43 43 44 45 46 47
14 15 15 15 15 15 18 20 22 22 23 26 29 31 32 30 28 29 31 33 33 35 36 38 41 43 44 45 44 44 43 42 42 42 42 42 43 44 45 47 48 49 51 51
13 13 14 15 16 16 18 19 21 23 24 26 30 34 34 33 31 31 31 32 34 35 36 37 38 39 40 41 41 42 42 41 41 41 42 43 45 46 48 50 52 53 54 56
12 13 15 16 17 17 18 19 21 24 26 27 30 34 34 35 35 34 34 34 34 33 33 36 38 39 39 41 41 41 41 41 41 42 43 45 47 49 51 53 55 56 58 59
11 12 15 17 18 19 20 21 22 24 26 29 31 34 35 36 37 37 37 38 37 35 33 33 34 35 36 37 39 40 41 41 42 44 46 48 50 53 55 56 57 59 60 61
8 10 13 15 17 19 21 22 23 24 26 30 31 33 36 37 37 37 37 36 37 36 35 34 32 32 33 34 35 37 39 42 43 45 47 49 51 53 54 56 57 58 59 60
5 7 9 13 16 17 19 21 21 22 22 24 27 30 32 34 35 35 35 35 35 34 32 32 32 32 33 34 35 36 37 39 41 43 45 46 47 48 50 52 54 55 56 57
5 7 9 12 15 17 17 16 18 19 21 22 24 28 30 31 32 32 32 32 31 31 32 31 32 32 34 34 34 36 37 38 40 41 42 43 44 45 47 48 49 50 50 50
4 7 9 11 14 16 17 17 18 19 21 23 24 26 27 28 28 28 28 28 29 29 29 29 28 29 30 31 32 33 35 36 37 39 40 41 42 44 45 46 47 47 47 48
6 6 8 11 13 15 16 18 19 20 21 22 23 24 26 26 26 27 26 26 26 26 25 24 26 27 27 29 30 31 32 34 35 37 38 40 42 42 43 44 44 45 46 46
8 8 9 10 12 14 15 16 18 19 20 21 21 21 21 22 22 21 21 20 22 23 23 23 25 26 27 28 29 30 31 32 34 35 37 38 40 40 41 42 42 43 43 43
11 11 11 12 13 13 14 15 16 17 19 19 19 18 18 18 18 18 18 18 20 21 22 23 24 25 26 26 28 29 31 32 33 34 36 37 37 38 39 40 40 40 41 41
13 13 13 14 13 13 14 14 15 15 16 16 16 16 16 16 16 16 17 18 19 20 21 22 22 23 24 25 27 28 29 30 31 32 32 33 35 36 37 37 38 38 37 37
14 15 15 14 13 13 13 14 15 15 14 14 14 14 14 15 15 16 17 17 18 19 19 19 20 22 23 24 25 26 27 27 28 29 31 32 34 34 35 34 34 33 32 31
15 16 16 14 13 13 13 14 14 13 13 13 13 13 13 13 14 14 15 15 15 16 17 18 19 21 21 22 23 23 24 25 27 28 30 31 32 31 30 28 26 25 24 23
18 18 17 15 14 14 14 14 14 14 13 12 12 11 11 12 12 12 12 13 14 15 16 17 18 19 19 20 20 21 22 24 25 26 28 28 27 24 23 21 20 19 18 17
18 18 18 17 16 15 15 14 13 13 12 11 10 10 10 10 10 10 11 12 13 14 15 16 16 17 17 18 19 19 20 22 23 24 25 24 22 20 18 17 16 15 15 14
Wind_Direction
211 209 209 211 214 214 212 209 202 197 198 198 188 183 186 194 203 210 219 227 235 243 247 250 255 258 257 255 254 257 259 266 273 280 284 287 289 290 290 288 286 287 288 288
209 208 207 207 210 210 207 203 199 198 200 193 182 178 184 193 202 211 220 230 237 242 247 252 257 260 262 265 266 268 267 269 273 279 283 286 288 290 290 291 288 286 287 286
206 204 206 206 206 207 206 201 194 194 195 192 188 188 189 199 209 216 223 231 239 245 251 255 257 260 267 270 271 273 272 274 274 278 281 283 286 288 288 290 289 287 286 285
200 201 203 204 204 206 205 199 195 195 197 195 199 200 200 207 215 223 229 234 240 247 252 257 260 266 269 271 274 276 277 275 276 277 278 280 283 284 284 286 286 286 285 283
190 196 200 202 203 206 205 201 201 201 203 204 207 207 207 215 220 226 231 237 242 248 254 259 262 265 268 271 274 276 277 275 274 276 277 279 280 281 281 282 283 284 283 284
184 188 194 199 202 206 207 206 207 209 210 210 215 220 216 220 225 229 233 237 243 248 252 256 260 263 268 271 273 274 275 275 275 276 277 277 279 280 281 282 281 282 283 284
184 188 191 196 202 208 211 212 214 215 218 216 217 227 226 223 228 233 236 239 243 246 251 255 259 261 264 267 269 272 274 276 277 277 277 276 277 278 279 280 281 282 282 283
179 185 191 196 203 209 214 217 219 222 223 223 223 230 232 230 233 236 238 241 243 246 250 253 257 260 263 265 268 271 273 275 276 275 275 275 275 276 276 277 280 282 282 284
172 178 188 194 201 209 212 217 221 226 226 224 225 233 237 237 237 238 239 241 244 247 250 252 255 258 262 265 268 270 273 274 274 274 274 273 273 274 275 277 278 280 282 284
174 175 182 190 201 208 214 216 219 224 224 224 225 232 237 238 239 239 242 244 244 248 251 252 254 257 260 263 266 268 270 271 272 272 272 271 272 274 276 277 279 282 283 284
175 177 181 188 196 202 209 214 219 222 225 226 226 232 238 242 245 248 250 254 256 256 256 255 254 256 259 262 264 266 266 267 268 269 269 270 272 274 276 278 281 282 282 283
180 185 188 194 199 200 210 218 222 223 226 230 232 235 238 245 251 256 258 260 263 262 262 261 260 261 262 263 263 263 264 265 265 266 268 270 272 274 276 278 279 281 282 283
197 200 199 203 210 215 221 227 230 230 232 234 237 241 242 249 255 259 264 268 270 267 264 263 264 263 262 261 261 262 262 263 264 267 269 271 273 274 275 277 278 279 281 282
212 218 216 217 222 226 232 238 239 238 239 239 241 247 250 253 259 263 267 270 272 275 275 272 268 264 261 261 263 263 263 264 266 268 270 272 274 275 276 276 278 279 280 281
226 231 228 230 236 238 242 245 245 245 246 245 247 250 255 259 263 266 269 273 276 278 279 275 272 271 268 267 268 269 268 267 268 270 271 273 273 275 277 278 279 280 280 280
237 245 244 244 247 249 252 255 253 250 251 251 251 255 259 263 268 272 274 279 282 280 280 282 283 282 279 277 277 276 276 276 276 276 277 278 280 280 282 283 282 280 281 281
260 263 261 261 263 264 267 265 263 259 256 260 261 263 262 266 271 277 281 283 285 285 286 290 290 289 290 288 287 287 285 286 286 286 285 284 285 286 287 287 285 285 286 287
290 279 275 273 277 278 283 279 276 275 273 273 274 272 273 278 279 281 283 285 287 290 291 291 290 290 291 289 288 287 287 287 287 287 286 288 288 289 288 289 290 290 289 288
330 316 302 293 290 289 287 287 285 282 281 283 282 281 281 283 286 286 289 289 290 292 293 291 292 292 291 290 290 290 288 289 290 291 291 291 291 291 291 291 290 289 289 288
346 336 321 312 305 300 296 292 291 288 288 287 287 288 289 288 290 292 293 292 292 291 291 291 291 292 291 291 291 292 293 294 294 294 294 294 294 294 293 292 292 291 290 289
347 338 329 321 315 308 303 299 297 293 293 293 291 290 291 293 293 295 296 295 293 292 291 292 292 292 293 294 295 295 296 297 298 298 298 297 297 297 296 295 294 293 293 292
346 340 335 329 324 318 313 309 307 304 301 297 292 292 295 298 297 297 297 297 296 294 293 294 294 295 296 297 298 298 299 300 301 301 302 302 302 301 300 299 298 296 295 294
347 342 339 334 328 320 316 313 310 306 304 302 297 297 299 300 301 301 300 299 299 298 297 296 297 297 299 300 301 301 303 304 306 308 309 309 308 307 305 304 302 301 300 298
349 346 343 339 332 325 318 316 317 316 313 310 307 303 301 302 304 305 303 303 303 302 301 301 302 302 303 304 305 306 308 311 314 315 315 315 314 312 311 311 310 310 310 308
351 349 347 344 339 333 327 324 321 320 318 315 313 308 307 308 309 309 309 309 308 308 309 309 309 309 310 311 313 315 318 320 322 324 324 324 323 321 321 322 321 323 324 325
349 348 346 345 342 338 334 330 329 327 325 323 322 320 319 320 320 318 317 316 316 316 317 316 315 317 319 320 321 323 326 328 330 333 334 334 333 333 334 336 337 338 339 341
Height
5786 5794 5800 5806 5811 5817 5821 5825 5828 5831 5832 5835 5838 5841 5845 5848 5851 5853 5855 5858 5860 5863 5866 5869 5870 5872 5872 5873 5874 5876 5877 5877 5877 5876 5875 5875 5874 5874 5873 5872 5871 5869 5868 5866
5784 5790 5796 5800 5806 5811 5816 5821 5824 5827 5829 5833 5835 5838 5842 5844 5847 5850 5852 5854 5857 5860 5862 5865 5867 5868 5868 5869 5870 5871 5872 5872 5871 5870 5869 5868 5867 5866 5865 5864 5863 5861 5859 5858
5780 5786 5790 5796 5802 5807 5813 5817 5820 5823 5826 5829 5833 5835 5839 5842 5843 5846 5848 5851 5853 5855 5858 5860 5861 5863 5864 5865 5866 5866 5867 5865 5864 5864 5862 5861 5860 5858 5857 5856 5855 5853 5852 5851
5776 5781 5787 5793 5798 5804 5809 5814 5816 5819 5822 5825 5829 5832 5836 5838 5841 5843 5845 5847 5849 5851 5853 5854 5855 5857 5858 5859 5860 5861 5861 5860 5859 5858 5856 5854 5853 5851 5849 5848 5846 5845 5843 5841
5774 5779 5784 5790 5796 5800 5806 5809 5813 5816 5818 5822 5825 5829 5834 5835 5837 5839 5841 5843 5845 5846 5848 5848 5849 5851 5851 5852 5852 5853 5853 5852 5851 5850 5848 5847 5845 5843 5841 5840 5838 5836 5834 5832
5771 5776 5782 5788 5792 5797 5802 5806 5810 5813 5816 5820 5823 5825 5830 5832 5833 5834 5836 5837 5839 5840 5842 5843 5844 5844 5844 5844 5845 5845 5845 5844 5843 5842 5840 5838 5836 5834 5832 5831 5830 5828 5826 5825
5770 5775 5780 5785 5789 5794 5798 5803 5807 5810 5813 5817 5820 5820 5824 5826 5828 5829 5830 5831 5833 5834 5835 5836 5837 5838 5838 5838 5838 5837 5836 5835 5834 5833 5831 5829 5828 5827 5824 5822 5821 5819 5818 5816
5770 5775 5779 5782 5787 5791 5795 5799 5803 5806 5809 5812 5815 5815 5818 5821 5822 5823 5824 5825 5826 5826 5828 5828 5829 5829 5830 5830 5829 5829 5828 5827 5826 5825 5823 5821 5819 5818 5816 5814 5812 5810 5808 5806
5769 5774 5777 5781 5784 5788 5791 5794 5798 5801 5804 5807 5810 5810 5812 5814 5815 5816 5816 5817 5818 5819 5819 5820 5820 5821 5820 5820 5820 5819 5819 5817 5816 5815 5814 5812 5810 5809 5807 5804 5803 5801 5799 5797
5768 5772 5775 5778 5781 5784 5788 5790 5793 5796 5799 5801 5804 5805 5806 5807 5807 5808 5808 5808 5809 5809 5810 5810 5810 5810 5811 5811 5810 5810 5809 5808 5806 5805 5804 5803 5801 5799 5797 5794 5793 5791 5789 5787
5768 5771 5774 5776 5778 5781 5784 5786 5788 5791 5794 5796 5798 5801 5798 5800 5800 5800 5799 5799 5798 5799 5799 5799 5800 5800 5800 5800 5800 5799 5798 5797 5797 5796 5794 5793 5792 5790 5788 5785 5783 5781 5779 5777
5768 5771 5772 5774 5776 5778 5780 5782 5784 5787 5788 5790 5792 5794 5792 5793 5793 5792 5791 5791 5791 5791 5790 5790 5790 5790 5791 5790 5789 5788 5788 5787 5787 5786 5785 5784 5782 5780 5778 5776 5773 5770 5767 5765
5767 5770 5771 5773 5776 5777 5777 5778 5779 5781 5783 5784 5785 5787 5786 5786 5785 5785 5784 5783 5782 5782 5782 5781 5781 5780 5780 5780 5779 5778 5778 5778 5777 5776 5775 5774 5772 5769 5767 5764 5761 5758 5755 5752
5767 5768 5770 5772 5772 5772 5773 5774 5775 5777 5778 5779 5779 5779 5779 5779 5778 5778 5777 5775 5774 5774 5773 5772 5771 5771 5770 5770 5769 5769 5768 5768 5767 5766 5764 5762 5760 5757 5755 5752 5749 5745 5742 5738
5765 5766 5767 5768 5768 5768 5769 5769 5770 5772 5772 5773 5773 5773 5772 5772 5771 5770 5769 5768 5767 5766 5765 5764 5763 5762 5761 5760 5759 5758 5757 5757 5756 5754 5752 5750 5747 5745 5741 5738 5735 5731 5727 5723
5764 5764 5764 5764 5764 5764 5764 5765 5765 5765 5766 5766 5766 5766 5765 5764 5763 5762 5761 5760 5759 5757 5756 5755 5754 5753 5752 5750 5750 5749 5747 5746 5744 5742 5740 5737 5734 5731 5728 5724 5720 5717 5713 5709
5762 5762 5762 5761 5760 5759 5760 5760 5760 5759 5759 5760 5759 5760 5758 5757 5756 5754 5753 5752 5751 5750 5748 5747 5746 5744 5743 5741 5740 5739 5737 5735 5733 5730 5727 5724 5721 5717 5714 5710 5706 5702 5698 5694
5760 5759 5758 5758 5757 5755 5757 5754 5754 5754 5753 5753 5752 5751 5750 5749 5748 5747 5746 5745 5743 5742 5740 5739 5738 5736 5735 5733 5731 5729 5727 5725 5722 5719 5715 5712 5708 5705 5701 5697 5692 5688 5684 5680
5758 5757 5756 5754 5753 5752 5751 5750 5749 5748 5747 5747 5745 5744 5743 5742 5741 5740 5738 5737 5736 5734 5733 5732 5730 5728 5727 5725 5723 5720 5717 5714 5711 5708 5704 5700 5696 5692 5688 5683 5679 5674 5670 5665
5756 5755 5754 5751 5750 5748 5748 5745 5743 5743 5741 5740 5739 5738 5736 5735 5735 5734 5732 5730 5729 5727 5726 5725 5723 5721 5719 5717 5714 5711 5708 5705 5701 5698 5694 5689 5685 5680 5675 5670 5665 5661 5656 5652
5754 5752 5751 5749 5747 5744 5743 5740 5739 5739 5737 5734 5733 5732 5730 5729 5729 5728 5726 5724 5723 5721 5720 5718 5716 5714 5711 5709 5706 5703 5699 5696 5692 5688 5683 5678 5673 5668 5663 5658 5653 5648 5643 5639
5752 5750 5747 5745 5743 5742 5738 5736 5735 5733 5730 5729 5727 5726 5725 5724 5723 5721 5720 5719 5717 5715 5714 5711 5709 5707 5705 5702 5698 5695 5691 5687 5683 5679 5674 5668 5663 5658 5652 5647 5641 5636 5631 5627
5749 5747 5745 5743 5741 5737 5734 5732 5730 5727 5726 5724 5723 5722 5720 5719 5718 5716 5715 5713 5712 5710 5708 5706 5703 5701 5698 5695 5691 5688 5684 5679 5675 5670 5665 5659 5653 5647 5642 5636 5631 5625 5620 5616
5747 5744 5741 5738 5736 5733 5730 5728 5726 5723 5722 5720 5718 5717 5716 5715 5713 5712 5710 5708 5706 5704 5702 5700 5698 5695 5692 5688 5685 5681 5677 5672 5668 5662 5657 5651 5644 5638 5632 5627 5622 5617 5613 5609
5745 5741 5738 5735 5733 5730 5727 5724 5722 5720 5718 5716 5714 5713 5712 5710 5709 5707 5706 5704 5702 5700 5698 5695 5692 5689 5686 5682 5679 5675 5671 5666 5661 5656 5650 5643 5637 5631 5626 5621 5617 5613 5608 5604
5742 5739 5736 5733 5730 5727 5724 5721 5719 5716 5714 5713 5711 5710 5709 5707 5706 5704 5702 5700 5698 5696 5693 5690 5687 5684 5681 5677 5673 5670 5666 5661 5656 5651 5644 5638 5632 5627 5622 5618 5614 5610 5607 5603